{"data":{"norad_id":63361,"epoch":"2026-05-24T22:59:32.062272Z","epoch_age_seconds":89210,"freshness":"FRESH","line1":"1 63361U 25062A   26144.95800998 -.00000142  00000+0  00000+0 0  9995","line2":"2 63361   4.4324 274.7760 0032018  11.1855  21.5655  1.00271499  4377","mean_motion":1.00271499,"eccentricity":0.0032018,"inclination_deg":4.4324,"raan_deg":274.776,"arg_perigee_deg":11.1855,"mean_anomaly_deg":21.5655,"bstar":0,"rev_number":437,"period_min":1436.1010001456,"perigee_km":35651.671842061,"apogee_km":35921.678433065,"semimajor_km":42164.812137563,"source":"CELESTRAK","updated_at":"2026-05-25T13:38:14.152443Z"}}